Weather History for New Castle, PA

Change the Weather History Date:

Friday, May 10, 2013

  Actual Average Record
Temperature  
Mean Temperature 62 °F -  
Max Temperature 73 °F 68 °F 89 °F (1979)
Min Temperature 51 °F 42 °F 22 °F (1966)
Degree Days  
Heating Degree Days 3    
Growing Degree Days 12 (Base 50)    
Moisture  
Dew Point 58 °F    
Average Humidity 87    
Maximum Humidity 100    
Minimum Humidity 63    
Precipitation  
Precipitation 0.33 in - - ()
Sea Level Pressure  
Sea Level Pressure 29.89 in    
Wind  
Wind Speed 4 mph (SW)    
Max Wind Speed 12 mph    
Max Gust Speed 18 mph    
Visibility 6 miles    
Events Rain    
Averages and records for this station are not official NWS values.
T = Trace of Precipitation, MM = Missing Value Source: NWS Daily Summary

Daily Weather History Graph

Daily Weather History Graph

Search for Another Location

Airport:

Trip Planner

Search our weather history database for the weather conditions in past years. The results will help you decide how hot, cold, wet, or windy it might be!

Date:

Astronomy

May. 10, 2013 Rise Set
Actual Time 6:08 AM EDT 8:28 PM EDT
Civil Twilight 5:37 AM EDT 8:58 PM EDT
Nautical Twilight 4:59 AM EDT 9:37 PM EDT
Astronomical Twilight 4:17 AM EDT 10:19 PM EDT
Moon 6:31 AM EDT (5/10) 9:16 PM EDT (5/10)
Length of Visible Light 15h 21m
Length of Day
14h 19m
New Moon, 0% of the Moon is Illuminated
May 10
New Moon
May 18
First Quarter
May 25
Full
May 31
Last Quarter
Jun 8
New

Hourly Weather History & Observations

Time (EDT) Temp. Dew Point Humidity Pressure Visibility Wind Dir Wind Speed Gust Speed Precip Events Conditions
12:56 AM 54.9 °F 45.9 °F 72% 30.04 in 10.0 mi Calm Calm - N/A   Partly Cloudy
1:56 AM 51.8 °F 46.4 °F 82% 30.00 in 10.0 mi Calm Calm - N/A   Clear
2:56 AM 52.9 °F 46.9 °F 80% 30.02 in 10.0 mi Calm Calm - N/A   Clear
3:56 AM 56.8 °F 47.8 °F 72% 30.00 in 10.0 mi Calm Calm - N/A   Clear
4:56 AM 57.9 °F 48.9 °F 72% 29.99 in 10.0 mi Calm Calm - N/A   Scattered Clouds
5:56 AM 59.9 °F 50.9 °F 72% 29.97 in 10.0 mi SSW 3.5 mph - N/A   Mostly Cloudy
6:56 AM 57.9 °F 54.9 °F 90% 30.01 in 5.0 mi WSW 3.5 mph - 0.00 in Rain Light Rain
7:56 AM 59.0 °F 55.4 °F 88% 29.95 in 10.0 mi Calm Calm - N/A   Mostly Cloudy
8:56 AM 61.9 °F 56.8 °F 84% 29.98 in 10.0 mi Variable 5.8 mph - N/A   Mostly Cloudy
9:56 AM 64.9 °F 57.9 °F 78% 29.97 in 10.0 mi Variable 4.6 mph - N/A   Partly Cloudy
10:56 AM 68.9 °F 59.0 °F 71% 29.96 in 10.0 mi Variable 5.8 mph - N/A   Partly Cloudy
11:56 AM 70.0 °F 59.0 °F 68% 29.95 in 10.0 mi SSW 9.2 mph - N/A   Scattered Clouds
12:56 PM 72.9 °F 59.9 °F 64% 29.94 in 10.0 mi South 9.2 mph - N/A   Scattered Clouds
1:56 PM 73.4 °F 60.8 °F 65% 29.89 in 10.0 mi Variable 6.9 mph - N/A   Mostly Cloudy
2:56 PM 73.9 °F 61.0 °F 64% 29.90 in 10.0 mi South 9.2 mph - N/A   Mostly Cloudy
3:56 PM 70.9 °F 57.9 °F 63% 29.88 in 10.0 mi SSW 5.8 mph - 0.00 in   Partly Cloudy
4:45 PM 66.2 °F 60.8 °F 83% 29.86 in 2.5 mi SSW 9.2 mph - 0.02 in Rain Rain
4:56 PM 64.4 °F 59.0 °F 83% 29.86 in 9.0 mi Variable 4.6 mph - N/A Rain Light Rain
5:32 PM 62.6 °F 60.8 °F 94% 29.89 in 1.8 mi SW 9.2 mph - 0.05 in Rain Rain
5:36 PM 62.6 °F 60.8 °F 94% 29.89 in 1.2 mi SW 10.4 mph - 0.05 in Rain Rain
5:39 PM 62.6 °F 60.8 °F 94% 29.89 in 1.5 mi SW 11.5 mph 18.4 mph 0.06 in Rain Rain
5:47 PM 62.6 °F 60.8 °F 94% 29.90 in 1.5 mi SW 10.4 mph 18.4 mph 0.10 in Rain Rain
5:56 PM 61.0 °F 59.9 °F 96% 29.93 in 1.5 mi SW 8.1 mph - 0.13 in Rain Rain
6:05 PM 60.8 °F 59.0 °F 94% 29.88 in 2.5 mi SW 6.9 mph - 0.02 in Rain Rain
6:12 PM 60.8 °F 59.0 °F 94% 29.87 in 4.0 mi SW 5.8 mph - 0.02 in Rain Light Rain
6:56 PM 59.9 °F 59.0 °F 97% 29.90 in 2.5 mi SW 3.5 mph - 0.06 in Rain Light Rain
6:59 PM 60.8 °F 59.0 °F 94% 29.86 in 1.8 mi SW 4.6 mph - 0.01 in Rain Light Rain
7:16 PM 60.8 °F 59.0 °F 94% 29.85 in 3.0 mi Variable 3.5 mph - 0.03 in Rain Light Rain
7:25 PM 60.8 °F 59.0 °F 94% 29.85 in 6.0 mi Variable 3.5 mph - 0.03 in Rain Light Rain
7:56 PM 60.8 °F 59.0 °F 94% 29.83 in 1.2 mi Variable 4.6 mph - N/A Rain Light Rain
8:02 PM 60.8 °F 59.0 °F 94% 29.83 in 1.0 mi SSW 5.8 mph - 0.04 in Rain Rain
8:11 PM 60.8 °F 59.0 °F 94% 29.83 in 0.8 mi Calm Calm - 0.08 in Rain Heavy Rain
8:13 PM 60.8 °F 59.0 °F 94% 29.83 in 1.0 mi SSW 3.5 mph - 0.09 in Rain Rain
8:17 PM 60.8 °F 59.0 °F 94% 29.83 in 1.5 mi Variable 3.5 mph - 0.09 in Rain Light Rain
8:20 PM 60.8 °F 59.0 °F 94% 29.83 in 2.0 mi Calm Calm - 0.09 in Rain Light Rain
8:30 PM 60.8 °F 59.0 °F 94% 29.83 in 2.5 mi Variable 5.8 mph - 0.10 in Rain Light Rain
8:37 PM 60.8 °F 59.0 °F 94% 29.82 in 3.0 mi Variable 6.9 mph - 0.11 in Rain Light Rain
8:56 PM 59.9 °F 59.0 °F 97% 29.86 in 6.0 mi SSW 6.9 mph - 0.12 in Rain Light Rain
9:09 PM 60.8 °F 59.0 °F 94% 29.82 in 7.0 mi SSW 5.8 mph - 0.00 in Rain Light Rain
9:56 PM 59.9 °F 59.0 °F 97% 29.86 in 10.0 mi Variable 5.8 mph - 0.02 in   Mostly Cloudy
10:18 PM 60.8 °F 59.0 °F 94% 29.82 in 10.0 mi Variable 3.5 mph - 0.00 in   Mostly Cloudy
10:47 PM 60.8 °F 60.8 °F 100% 29.81 in 10.0 mi Variable 4.6 mph - 0.00 in   Overcast
10:56 PM 60.8 °F 60.8 °F 100% 29.81 in 10.0 mi SSW 4.6 mph - N/A   Mostly Cloudy
11:15 PM - - N/A% 29.81 in 10.0 mi SSW 4.6 mph - N/A   Mostly Cloudy
11:19 PM - - N/A% 29.81 in 10.0 mi Variable 3.5 mph - N/A   Mostly Cloudy
11:56 PM - - N/A% 29.80 in 10.0 mi SW 5.8 mph - N/A   Overcast